Time,TemperatureF,DewpointF,PressureIn,WindDirection,WindDirectionDegrees,WindSpeedMPH,WindSpeedGustMPH,Humidity,HourlyPrecipIn,Conditions,Clouds,dailyrainin,SoftwareType,DateUTC
2013-08-25 00:02:00,43.0,28.0,-100.00,ESE,110,2.0,7.0,55,0.00,,,0.00,,2013-08-25 08:02:00,
2013-08-25 00:12:00,43.0,28.0,-100.00,ESE,110,2.0,7.0,55,0.00,,,0.00,,2013-08-25 08:12:00,
2013-08-25 00:21:00,42.0,27.0,-100.00,ESE,120,2.0,9.0,56,0.00,,,0.00,,2013-08-25 08:21:00,
2013-08-25 00:32:00,42.0,27.0,-100.00,ESE,120,2.0,9.0,56,0.00,,,0.00,,2013-08-25 08:32:00,
2013-08-25 00:42:00,42.0,27.0,-100.00,ESE,120,2.0,9.0,56,0.00,,,0.00,,2013-08-25 08:42:00,
2013-08-25 00:52:00,41.0,27.0,-100.00,ESE,105,2.0,9.0,58,0.00,,,0.00,,2013-08-25 08:52:00,
2013-08-25 01:02:00,41.0,27.0,-100.00,ESE,105,2.0,9.0,58,0.00,,,0.00,,2013-08-25 09:02:00,
2013-08-25 01:11:00,41.0,27.0,-100.00,ESE,105,2.0,9.0,58,0.00,,,0.00,,2013-08-25 09:11:00,
2013-08-25 01:22:00,40.0,28.0,-100.00,ESE,115,2.0,10.0,60,0.00,,,0.00,,2013-08-25 09:22:00,
2013-08-25 01:34:00,40.0,28.0,-100.00,ESE,115,2.0,10.0,60,0.00,,,0.00,,2013-08-25 09:34:00,
2013-08-25 01:44:00,40.0,28.0,-100.00,ESE,115,2.0,10.0,60,0.00,,,0.00,,2013-08-25 09:44:00,
2013-08-25 01:55:00,41.0,27.0,-100.00,NE,55,4.0,9.0,57,0.00,,,0.00,,2013-08-25 09:55:00,
2013-08-25 02:03:00,41.0,27.0,-100.00,NE,55,4.0,9.0,57,0.00,,,0.00,,2013-08-25 10:03:00,
2013-08-25 02:12:00,41.0,27.0,-100.00,NE,55,4.0,9.0,57,0.00,,,0.00,,2013-08-25 10:12:00,
2013-08-25 02:22:00,42.0,27.0,-100.00,NE,40,7.0,10.0,56,0.00,,,0.00,,2013-08-25 10:22:00,
2013-08-25 02:33:00,42.0,27.0,-100.00,NE,40,7.0,10.0,56,0.00,,,0.00,,2013-08-25 10:33:00,
2013-08-25 02:42:00,42.0,27.0,-100.00,NE,40,7.0,10.0,56,0.00,,,0.00,,2013-08-25 10:42:00,
2013-08-25 02:53:00,41.0,27.0,-100.00,ENE,60,8.0,13.0,56,0.00,,,0.00,,2013-08-25 10:53:00,
2013-08-25 03:02:00,41.0,27.0,-100.00,ENE,60,8.0,13.0,56,0.00,,,0.00,,2013-08-25 11:02:00,
2013-08-25 03:11:00,41.0,27.0,-100.00,ENE,60,8.0,13.0,56,0.00,,,0.00,,2013-08-25 11:11:00,
2013-08-25 03:22:00,40.0,26.0,-100.00,NE,50,9.0,14.0,56,0.00,,,0.00,,2013-08-25 11:22:00,
2013-08-25 03:33:00,40.0,26.0,-100.00,NE,50,9.0,14.0,56,0.00,,,0.00,,2013-08-25 11:33:00,
2013-08-25 03:42:00,40.0,26.0,-100.00,NE,50,9.0,14.0,56,0.00,,,0.00,,2013-08-25 11:42:00,
2013-08-25 03:52:00,39.0,26.0,-100.00,NE,40,7.0,12.0,57,0.00,,,0.00,,2013-08-25 11:52:00,
2013-08-25 04:01:00,39.0,26.0,-100.00,NE,40,7.0,12.0,57,0.00,,,0.00,,2013-08-25 12:01:00,
2013-08-25 04:12:00,39.0,26.0,-100.00,NE,40,7.0,12.0,57,0.00,,,0.00,,2013-08-25 12:12:00,
2013-08-25 04:22:00,39.0,25.0,-100.00,ENE,60,7.0,11.0,56,0.00,,,0.00,,2013-08-25 12:22:00,
2013-08-25 04:32:00,39.0,25.0,-100.00,ENE,60,7.0,11.0,56,0.00,,,0.00,,2013-08-25 12:32:00,
2013-08-25 04:43:00,39.0,25.0,-100.00,ENE,60,7.0,11.0,56,0.00,,,0.00,,2013-08-25 12:43:00,
2013-08-25 04:52:00,39.0,25.0,-100.00,ENE,65,6.0,9.0,56,0.00,,,0.00,,2013-08-25 12:52:00,
2013-08-25 05:02:00,39.0,25.0,-100.00,ENE,65,6.0,9.0,56,0.00,,,0.00,,2013-08-25 13:02:00,
2013-08-25 05:11:00,39.0,25.0,-100.00,ENE,65,6.0,9.0,56,0.00,,,0.00,,2013-08-25 13:11:00,
2013-08-25 05:21:00,39.0,25.0,-100.00,NE,55,6.0,9.0,56,0.00,,,0.00,,2013-08-25 13:21:00,
2013-08-25 05:32:00,39.0,25.0,-100.00,NE,55,6.0,9.0,56,0.00,,,0.00,,2013-08-25 13:32:00,
2013-08-25 05:42:00,39.0,25.0,-100.00,NE,55,6.0,9.0,56,0.00,,,0.00,,2013-08-25 13:42:00,
2013-08-25 05:52:00,38.0,25.0,-100.00,NE,55,6.0,11.0,57,0.00,,,0.00,,2013-08-25 13:52:00,
2013-08-25 06:02:00,38.0,25.0,-100.00,NE,55,6.0,11.0,57,0.00,,,0.00,,2013-08-25 14:02:00,
2013-08-25 06:11:00,38.0,25.0,-100.00,NE,55,6.0,11.0,57,0.00,,,0.00,,2013-08-25 14:11:00,
2013-08-25 06:24:00,38.0,25.0,-100.00,ENE,60,6.0,9.0,57,0.00,,,0.00,,2013-08-25 14:24:00,
2013-08-25 06:32:00,38.0,25.0,-100.00,ENE,60,6.0,9.0,57,0.00,,,0.00,,2013-08-25 14:32:00,
2013-08-25 06:42:00,38.0,25.0,-100.00,ENE,60,6.0,9.0,57,0.00,,,0.00,,2013-08-25 14:42:00,
2013-08-25 06:52:00,38.0,25.0,-100.00,ENE,60,7.0,12.0,57,0.00,,,0.00,,2013-08-25 14:52:00,
2013-08-25 07:01:00,38.0,25.0,-100.00,ENE,60,7.0,12.0,57,0.00,,,0.00,,2013-08-25 15:01:00,
2013-08-25 07:11:00,38.0,25.0,-100.00,ENE,60,7.0,12.0,57,0.00,,,0.00,,2013-08-25 15:11:00,
2013-08-25 07:23:00,38.0,25.0,-100.00,NE,55,6.0,11.0,57,0.00,,,0.00,,2013-08-25 15:23:00,
2013-08-25 07:35:00,38.0,25.0,-100.00,NE,55,6.0,11.0,57,0.00,,,0.00,,2013-08-25 15:35:00,
2013-08-25 07:44:00,38.0,25.0,-100.00,NE,55,6.0,11.0,57,0.00,,,0.00,,2013-08-25 15:44:00,
2013-08-25 07:54:00,38.0,25.0,-100.00,NE,50,7.0,12.0,58,0.00,,,0.00,,2013-08-25 15:54:00,
2013-08-25 08:04:00,38.0,25.0,-100.00,NE,50,7.0,12.0,58,0.00,,,0.00,,2013-08-25 16:04:00,
2013-08-25 08:13:00,38.0,25.0,-100.00,NE,50,7.0,12.0,58,0.00,,,0.00,,2013-08-25 16:13:00,
2013-08-25 08:24:00,38.0,25.0,-100.00,NE,40,6.0,11.0,58,0.00,,,0.00,,2013-08-25 16:24:00,
2013-08-25 08:33:00,38.0,25.0,-100.00,NE,40,6.0,11.0,58,0.00,,,0.00,,2013-08-25 16:33:00,
2013-08-25 08:44:00,38.0,25.0,-100.00,NE,40,6.0,11.0,58,0.00,,,0.00,,2013-08-25 16:44:00,
2013-08-25 08:53:00,38.0,25.0,-100.00,ENE,65,6.0,10.0,58,0.00,,,0.00,,2013-08-25 16:53:00,
2013-08-25 09:03:00,38.0,25.0,-100.00,ENE,65,6.0,10.0,58,0.00,,,0.00,,2013-08-25 17:03:00,
2013-08-25 09:11:00,38.0,25.0,-100.00,ENE,65,6.0,10.0,58,0.00,,,0.00,,2013-08-25 17:11:00,
2013-08-25 09:22:00,39.0,26.0,-100.00,ENE,60,3.0,8.0,58,0.00,,,0.00,,2013-08-25 17:22:00,
2013-08-25 09:34:00,39.0,26.0,-100.00,ENE,60,3.0,8.0,58,0.00,,,0.00,,2013-08-25 17:34:00,
2013-08-25 09:43:00,39.0,26.0,-100.00,ENE,60,3.0,8.0,58,0.00,,,0.00,,2013-08-25 17:43:00,
2013-08-25 09:53:00,40.0,26.0,-100.00,NE,50,2.0,10.0,58,0.00,,,0.00,,2013-08-25 17:53:00,
2013-08-25 10:02:00,40.0,26.0,-100.00,NE,50,2.0,10.0,58,0.00,,,0.00,,2013-08-25 18:02:00,
2013-08-25 10:12:00,40.0,26.0,-100.00,NE,50,2.0,10.0,58,0.00,,,0.00,,2013-08-25 18:12:00,
2013-08-25 10:21:00,41.0,27.0,-100.00,ENE,75,2.0,11.0,57,0.00,,,0.00,,2013-08-25 18:21:00,
2013-08-25 10:32:00,41.0,27.0,-100.00,ENE,75,2.0,11.0,57,0.00,,,0.00,,2013-08-25 18:32:00,
2013-08-25 10:42:00,41.0,27.0,-100.00,ENE,75,2.0,11.0,57,0.00,,,0.00,,2013-08-25 18:42:00,
2013-08-25 10:52:00,43.0,28.0,-100.00,SSE,155,2.0,11.0,55,0.00,,,0.00,,2013-08-25 18:52:00,
2013-08-25 11:02:00,43.0,28.0,-100.00,SSE,155,2.0,11.0,55,0.00,,,0.00,,2013-08-25 19:02:00,
2013-08-25 11:11:00,43.0,28.0,-100.00,SSE,155,2.0,11.0,55,0.00,,,0.00,,2013-08-25 19:11:00,
2013-08-25 11:22:00,44.0,29.0,-100.00,ENE,70,3.0,8.0,53,0.00,,,0.00,,2013-08-25 19:22:00,
2013-08-25 11:32:00,44.0,29.0,-100.00,ENE,70,3.0,8.0,53,0.00,,,0.00,,2013-08-25 19:32:00,
2013-08-25 11:42:00,44.0,29.0,-100.00,ENE,70,3.0,8.0,53,0.00,,,0.00,,2013-08-25 19:42:00,
2013-08-25 11:53:00,46.0,29.0,-100.00,East,90,6.0,11.0,50,0.00,,,0.00,,2013-08-25 19:53:00,
2013-08-25 12:03:00,46.0,29.0,-100.00,East,90,6.0,11.0,50,0.00,,,0.00,,2013-08-25 20:03:00,
2013-08-25 12:12:00,46.0,29.0,-100.00,East,90,6.0,11.0,50,0.00,,,0.00,,2013-08-25 20:12:00,
2013-08-25 12:23:00,48.0,29.0,-100.00,East,80,2.0,9.0,47,0.00,,,0.00,,2013-08-25 20:23:00,
2013-08-25 12:33:00,48.0,29.0,-100.00,East,80,2.0,9.0,47,0.00,,,0.00,,2013-08-25 20:33:00,
2013-08-25 12:43:00,48.0,29.0,-100.00,East,80,2.0,9.0,47,0.00,,,0.00,,2013-08-25 20:43:00,
2013-08-25 12:53:00,49.0,29.0,-100.00,NE,50,6.0,12.0,46,0.00,,,0.00,,2013-08-25 20:53:00,
2013-08-25 13:01:00,49.0,29.0,-100.00,NE,50,6.0,12.0,46,0.00,,,0.00,,2013-08-25 21:01:00,
2013-08-25 13:12:00,49.0,29.0,-100.00,NE,50,6.0,12.0,46,0.00,,,0.00,,2013-08-25 21:12:00,
2013-08-25 13:22:00,49.0,30.0,-100.00,ENE,60,4.0,11.0,46,0.00,,,0.00,,2013-08-25 21:22:00,
2013-08-25 13:34:00,49.0,30.0,-100.00,ENE,60,4.0,11.0,46,0.00,,,0.00,,2013-08-25 21:34:00,
2013-08-25 13:43:00,49.0,30.0,-100.00,ENE,60,4.0,11.0,46,0.00,,,0.00,,2013-08-25 21:43:00,
2013-08-25 13:54:00,50.0,30.0,-100.00,SE,125,2.0,12.0,46,0.00,,,0.00,,2013-08-25 21:54:00,
2013-08-25 14:03:00,50.0,30.0,-100.00,SE,125,2.0,12.0,46,0.00,,,0.00,,2013-08-25 22:03:00,
2013-08-25 14:14:00,50.0,30.0,-100.00,SE,125,2.0,12.0,46,0.00,,,0.00,,2013-08-25 22:14:00,
2013-08-25 14:24:00,51.0,30.0,-100.00,East,90,4.0,12.0,45,0.00,,,0.00,,2013-08-25 22:24:00,
2013-08-25 14:34:00,51.0,30.0,-100.00,East,90,4.0,12.0,45,0.00,,,0.00,,2013-08-25 22:34:00,
2013-08-25 14:43:00,51.0,30.0,-100.00,East,90,4.0,12.0,45,0.00,,,0.00,,2013-08-25 22:43:00,
2013-08-25 14:53:00,52.0,29.0,-100.00,ENE,70,6.0,12.0,41,0.00,,,0.00,,2013-08-25 22:53:00,
2013-08-25 15:03:00,52.0,29.0,-100.00,ENE,70,6.0,12.0,41,0.00,,,0.00,,2013-08-25 23:03:00,
2013-08-25 15:12:00,52.0,29.0,-100.00,ENE,70,6.0,12.0,41,0.00,,,0.00,,2013-08-25 23:12:00,
2013-08-25 15:23:00,53.0,27.0,-100.00,NE,55,6.0,11.0,37,0.00,,,0.00,,2013-08-25 23:23:00,
2013-08-25 15:33:00,53.0,27.0,-100.00,NE,55,6.0,11.0,37,0.00,,,0.00,,2013-08-25 23:33:00,
2013-08-25 15:42:00,53.0,27.0,-100.00,NE,55,6.0,11.0,37,0.00,,,0.00,,2013-08-25 23:42:00,
2013-08-25 15:53:00,54.0,25.0,-100.00,ENE,60,4.0,12.0,33,0.00,,,0.00,,2013-08-25 23:53:00,
2013-08-25 16:02:00,54.0,25.0,-100.00,ENE,60,4.0,12.0,33,0.00,,,0.00,,2013-08-26 00:02:00,
2013-08-25 16:11:00,54.0,25.0,-100.00,ENE,60,4.0,12.0,33,0.00,,,0.00,,2013-08-26 00:11:00,
2013-08-25 16:22:00,56.0,26.0,-100.00,NE,55,4.0,9.0,30,0.00,,,0.00,,2013-08-26 00:22:00,
2013-08-25 16:32:00,56.0,26.0,-100.00,NE,55,4.0,9.0,30,0.00,,,0.00,,2013-08-26 00:32:00,
2013-08-25 16:42:00,56.0,26.0,-100.00,NE,55,4.0,9.0,30,0.00,,,0.00,,2013-08-26 00:42:00,
2013-08-25 16:52:00,57.0,25.0,-100.00,NNE,20,1.0,10.0,28,0.00,,,0.00,,2013-08-26 00:52:00,
2013-08-25 17:01:00,57.0,25.0,-100.00,NNE,20,1.0,10.0,28,0.00,,,0.00,,2013-08-26 01:01:00,
2013-08-25 17:11:00,57.0,25.0,-100.00,NNE,20,1.0,10.0,28,0.00,,,0.00,,2013-08-26 01:11:00,
2013-08-25 17:42:00,57.0,24.0,-100.00,East,90,3.0,8.0,27,0.00,,,0.00,,2013-08-26 01:42:00,
2013-08-25 17:52:00,58.0,24.0,-100.00,ENE,65,4.0,11.0,27,0.00,,,0.00,,2013-08-26 01:52:00,
2013-08-25 18:02:00,58.0,24.0,-100.00,ENE,65,4.0,11.0,27,0.00,,,0.00,,2013-08-26 02:02:00,
2013-08-25 18:11:00,58.0,24.0,-100.00,ENE,65,4.0,11.0,27,0.00,,,0.00,,2013-08-26 02:11:00,
2013-08-25 18:21:00,57.0,24.0,-100.00,ESE,110,2.0,12.0,27,0.00,,,0.00,,2013-08-26 02:21:00,
2013-08-25 18:32:00,57.0,24.0,-100.00,ESE,110,2.0,12.0,27,0.00,,,0.00,,2013-08-26 02:32:00,
2013-08-25 18:42:00,57.0,24.0,-100.00,ESE,110,2.0,12.0,27,0.00,,,0.00,,2013-08-26 02:42:00,
2013-08-25 18:52:00,58.0,24.0,-100.00,NE,55,2.0,9.0,27,0.00,,,0.00,,2013-08-26 02:52:00,
2013-08-25 19:02:00,58.0,24.0,-100.00,NE,55,2.0,9.0,27,0.00,,,0.00,,2013-08-26 03:02:00,
2013-08-25 19:11:00,58.0,24.0,-100.00,NE,55,2.0,9.0,27,0.00,,,0.00,,2013-08-26 03:11:00,
2013-08-25 19:22:00,57.0,24.0,-100.00,NE,55,2.0,9.0,27,0.00,,,0.00,,2013-08-26 03:22:00,
2013-08-25 19:34:00,57.0,24.0,-100.00,NE,55,2.0,9.0,27,0.00,,,0.00,,2013-08-26 03:34:00,
2013-08-25 19:44:00,57.0,24.0,-100.00,NE,55,2.0,9.0,27,0.00,,,0.00,,2013-08-26 03:44:00,
2013-08-25 19:55:00,56.0,24.0,-100.00,ESE,110,1.0,6.0,28,0.00,,,0.00,,2013-08-26 03:55:00,
2013-08-25 20:05:00,56.0,24.0,-100.00,ESE,110,1.0,6.0,28,0.00,,,0.00,,2013-08-26 04:05:00,
2013-08-25 20:14:00,56.0,24.0,-100.00,ESE,110,1.0,6.0,28,0.00,,,0.00,,2013-08-26 04:14:00,
2013-08-25 20:24:00,56.0,24.0,-100.00,NE,35,1.0,5.0,28,0.00,,,0.00,,2013-08-26 04:24:00,
2013-08-25 20:34:00,56.0,24.0,-100.00,NE,35,1.0,5.0,28,0.00,,,0.00,,2013-08-26 04:34:00,
2013-08-25 20:43:00,56.0,24.0,-100.00,NE,35,1.0,5.0,28,0.00,,,0.00,,2013-08-26 04:43:00,
2013-08-25 20:53:00,55.0,24.0,-100.00,NE,45,2.0,6.0,29,0.00,,,0.00,,2013-08-26 04:53:00,
2013-08-25 21:03:00,55.0,24.0,-100.00,NE,45,2.0,6.0,29,0.00,,,0.00,,2013-08-26 05:03:00,
2013-08-25 21:13:00,55.0,24.0,-100.00,NE,45,2.0,6.0,29,0.00,,,0.00,,2013-08-26 05:13:00,
2013-08-25 21:43:00,53.0,23.0,-100.00,ENE,75,2.0,6.0,31,0.00,,,0.00,,2013-08-26 05:43:00,
2013-08-25 21:52:00,52.0,23.0,-100.00,ENE,65,3.0,6.0,31,0.00,,,0.00,,2013-08-26 05:52:00,
2013-08-25 22:02:00,52.0,23.0,-100.00,ENE,65,3.0,6.0,31,0.00,,,0.00,,2013-08-26 06:02:00,
2013-08-25 22:12:00,52.0,23.0,-100.00,ENE,65,3.0,6.0,31,0.00,,,0.00,,2013-08-26 06:12:00,
2013-08-25 22:21:00,51.0,23.0,-100.00,NE,50,4.0,6.0,32,0.00,,,0.00,,2013-08-26 06:21:00,
2013-08-25 22:32:00,51.0,23.0,-100.00,NE,50,4.0,6.0,32,0.00,,,0.00,,2013-08-26 06:32:00,
2013-08-25 22:42:00,51.0,23.0,-100.00,NE,50,4.0,6.0,32,0.00,,,0.00,,2013-08-26 06:42:00,
2013-08-25 22:52:00,51.0,23.0,-100.00,NNE,30,6.0,9.0,33,0.00,,,0.00,,2013-08-26 06:52:00,
2013-08-25 23:02:00,51.0,23.0,-100.00,NNE,30,6.0,9.0,33,0.00,,,0.00,,2013-08-26 07:02:00,
2013-08-25 23:11:00,51.0,23.0,-100.00,NNE,30,6.0,9.0,33,0.00,,,0.00,,2013-08-26 07:11:00,
2013-08-25 23:21:00,48.0,22.0,-100.00,NE,40,8.0,14.0,35,0.00,,,0.00,,2013-08-26 07:21:00,
2013-08-25 23:32:00,48.0,22.0,-100.00,NE,40,8.0,14.0,35,0.00,,,0.00,,2013-08-26 07:32:00,
2013-08-25 23:42:00,48.0,22.0,-100.00,NE,40,8.0,14.0,35,0.00,,,0.00,,2013-08-26 07:42:00,